(32791) = 1978 VW15 = 1989 TQ2 = 2000 TA20

Discovered at Cerro Tololo on 1989-10-03 by S. J. Bus.

Orbit

Orbit type: Main Belt

Note: WebGL enabled browser required.

epoch2024-03-31.0
epoch JD2460400.5
perihelion date2023-08-30.04476
perihelion JD2460186.54476
argument of perihelion (°)16.33842
ascending node (°)46.10083
inclination (°)18.37439
eccentricity0.1576563
perihelion distance (AU)2.6519942
Tisserand w.r.t. Jupiter3.1
ΔV w.r.t. Earth (km/sec)11.6
semimajor axis (AU)3.1483516
mean anomaly (°)37.74869
mean daily motion (°/day)0.17643270
aphelion distance (AU)3.645
period (years)5.59
P-vector [x]0.47302314
P-vector [y]0.76896957
P-vector [z]0.43004058
Q-vector [x]-0.85126793
Q-vector [y]0.27305881
Q-vector [z]0.44808681
absolute magnitude13.22
phase slope0.15
uncertainty0
referenceMPEC 2024-F50
observations used2446
oppositions22
arc length (days)16991
first opposition used1977
last opposition used2024
residual rms (arc-secs)0.58
perturbers coarse indicatorM-v
perturbers precise indicator003Ek
first observation date used1977-09-11.0
last observation date used2024-03-19.0
computer nameMPCLINUX
JD of orbit computation2456877.856179
perihelion JD uncertainty (days)7.1216E-05
argument of perihelion uncertainty (°)1.7995E-05
ascending node uncertainty (°)1.0867E-05
inclination uncertainty (°)4.4327E-06
eccentricity uncertainty 3.8694E-08
perihelion distance uncertainty (AU)1.1772E-07
Minimum Orbit Intersection Distances (in AU)
for orbit epoch: 2460400.5, reference: E2024-G17
Mercury2.34227
Venus1.93462
Earth1.66877
Mars1.15844
Jupiter1.77009
Saturn6.25727
Uranus15.1204
Neptune26.9837

Observations

2455 total observations over interval: 1977 09 11.45856 – 2024 03 19.340140
These data are available for download (format description).

Date (UT) J2000 RA J2000 Dec Magn Location Ref
1977 09 11.45856 21 31 31.94 -40 46 30.9   260 – Siding Spring Observatory-DSS MPS 46397
1977 09 11.51065 21 31 29.82 -40 46 22.7   260 – Siding Spring Observatory-DSS MPS 46397
1978 11 01.96407 03 21 28.68 +19 10 17.3 17.2   095 – Crimea-Nauchnyi MPC 6248
1989 09 28.43576 02 24 58.01 +03 12 30.8   675 – Palomar Mountain MPC 19412
1989 09 28.48038 02 24 56.22 +03 12 31.5   675 – Palomar Mountain MPC 19412
1989 10 03.23958 02 21 41.88 +03 15 34.1 17.2   807 – Cerro Tololo Observatory, La Serena MPC 15633
1989 10 06.29722 02 19 21.74 +03 17 34.8   807 – Cerro Tololo Observatory, La Serena MPC 15633
1989 11 01.22153 01 55 02.67 +03 52 06.0   807 – Cerro Tololo Observatory, La Serena MPC 15633
1998 05 22.28167 15 19 54.62 -22 43 31.6 19.2   704 – Lincoln Laboratory ETS, New Mexico MPS 20618
1998 05 22.30115 15 19 53.66 -22 43 31.3 19.2   704 – Lincoln Laboratory ETS, New Mexico MPS 20618
1998 05 22.32075 15 19 52.54 -22 43 31.0 19.2   704 – Lincoln Laboratory ETS, New Mexico MPS 20618
1998 05 22.34052 15 19 51.21 -22 43 30.7 19.6   704 – Lincoln Laboratory ETS, New Mexico MPS 20618
2000 08 02.39175 01 35 29.06 -08 00 52.6 18.9   704 – Lincoln Laboratory ETS, New Mexico MPS 21456
2000 08 02.40600 01 35 29.26 -08 00 52.8 19.3   704 – Lincoln Laboratory ETS, New Mexico MPS 21456
2000 08 02.42025 01 35 29.65 -08 00 53.6 18.4   704 – Lincoln Laboratory ETS, New Mexico MPS 21456
2000 08 02.43451 01 35 30.09 -08 00 54.7 18.1   704 – Lincoln Laboratory ETS, New Mexico MPS 21456
2000 08 28.37817 01 37 43.53 -08 27 21.8 17.6   704 – Lincoln Laboratory ETS, New Mexico MPS 21456
2000 08 28.40529 01 37 43.22 -08 27 24.5 19.0   704 – Lincoln Laboratory ETS, New Mexico MPS 21456
2000 08 28.41889 01 37 42.96 -08 27 26.5 19.0   704 – Lincoln Laboratory ETS, New Mexico MPS 21456
2000 08 28.43246 01 37 42.67 -08 27 28.2 18.3   704 – Lincoln Laboratory ETS, New Mexico MPS 21456
2000 09 10.34780 01 32 46.84 -08 55 31.4 17.0 R 699 – Lowell Observatory-LONEOS MPS 29839
2000 09 10.36642 01 32 46.28 -08 55 33.3   699 – Lowell Observatory-LONEOS MPS 29839
2000 09 10.38497 01 32 45.61 -08 55 36.1   699 – Lowell Observatory-LONEOS MPS 29839
2000 09 10.40359 01 32 44.99 -08 55 38.6   699 – Lowell Observatory-LONEOS MPS 29839
2000 09 26.355830 01 21 32.862 -09 26 57.03 17.26 V 645 – Apache Point-Sloan Digital Sky Survey MPS 80994
2000 09 26.359302 01 21 32.684 -09 26 57.31 17.98   645 – Apache Point-Sloan Digital Sky Survey MPS 80994
2000 09 29.30820 01 18 59.88 -09 30 45.8 16.5 R 699 – Lowell Observatory-LONEOS MPS 26298
2000 09 29.32216 01 18 59.15 -09 30 46.5   699 – Lowell Observatory-LONEOS MPS 26298
2000 09 29.33607 01 18 58.32 -09 30 47.4   699 – Lowell Observatory-LONEOS MPS 26298
2000 09 29.36482 01 18 56.81 -09 30 49.6   699 – Lowell Observatory-LONEOS MPS 26298
2000 10 01.25348 01 17 15.69 -09 32 44.7 16.9   704 – Lincoln Laboratory ETS, New Mexico MPS 20303
2000 10 01.26949 01 17 14.79 -09 32 45.5 17.2   704 – Lincoln Laboratory ETS, New Mexico MPS 20303
2000 10 01.28514 01 17 13.90 -09 32 46.3 17.0   704 – Lincoln Laboratory ETS, New Mexico MPS 20303
2000 10 01.29993 01 17 13.09 -09 32 46.5 17.2   704 – Lincoln Laboratory ETS, New Mexico MPS 20303
2000 10 01.31583 01 17 12.22 -09 32 47.5 17.2   704 – Lincoln Laboratory ETS, New Mexico MPS 20303
2000 10 05.31474 01 13 31.35 -09 35 21.0 16.7   704 – Lincoln Laboratory ETS, New Mexico MPS 20303
2000 10 05.32978 01 13 30.51 -09 35 21.1 17.4   704 – Lincoln Laboratory ETS, New Mexico MPS 20303
2000 10 05.34487 01 13 29.61 -09 35 21.5 17.0   704 – Lincoln Laboratory ETS, New Mexico MPS 20303
2000 10 05.36033 01 13 28.73 -09 35 21.8 17.5   704 – Lincoln Laboratory ETS, New Mexico MPS 20303
2000 10 05.37598 01 13 27.86 -09 35 22.3 16.8   704 – Lincoln Laboratory ETS, New Mexico MPS 20303
2000 10 29.21900 00 51 47.62 -08 56 53.7 17.2   704 – Lincoln Laboratory ETS, New Mexico MPS 21456
2000 10 29.23378 00 51 46.88 -08 56 50.7 17.5   704 – Lincoln Laboratory ETS, New Mexico MPS 21456
2000 10 29.24898 00 51 46.13 -08 56 46.8 17.6   704 – Lincoln Laboratory ETS, New Mexico MPS 21456
2000 10 29.26304 00 51 45.47 -08 56 44.3 17.3   704 – Lincoln Laboratory ETS, New Mexico MPS 21456
2000 10 29.27740 00 51 44.74 -08 56 40.8 17.7   704 – Lincoln Laboratory ETS, New Mexico MPS 21456
2000 11 20.15403 00 39 24.92 -06 53 37.7 17.7   704 – Lincoln Laboratory ETS, New Mexico MPS 22042
2000 11 20.16838 00 39 24.71 -06 53 29.6 17.5   704 – Lincoln Laboratory ETS, New Mexico MPS 22042
2000 11 20.18282 00 39 24.39 -06 53 24.3 17.1   704 – Lincoln Laboratory ETS, New Mexico MPS 22042
2000 11 20.19888 00 39 24.09 -06 53 16.7 17.8   704 – Lincoln Laboratory ETS, New Mexico MPS 22042
2000 11 20.21341 00 39 23.81 -06 53 09.8 17.0   704 – Lincoln Laboratory ETS, New Mexico MPS 22042
2000 11 21.29941 00 39 04.88 -06 45 09.4 17.7   608 – Haleakala-AMOS MPS 22042
2000 11 21.31037 00 39 04.68 -06 45 04.5 17.6   608 – Haleakala-AMOS MPS 22042
2000 11 21.32091 00 39 04.49 -06 44 59.5 17.8   608 – Haleakala-AMOS MPS 22042
2000 11 22.25763 00 38 49.89 -06 37 55.8 18.2   608 – Haleakala-AMOS MPS 22042
2000 11 22.26873 00 38 49.69 -06 37 50.8 18.2   608 – Haleakala-AMOS MPS 22042
2000 11 22.27975 00 38 49.51 -06 37 45.8 18.2   608 – Haleakala-AMOS MPS 22042
2000 11 25.16203 00 38 11.83 -06 15 24.1 18.6   704 – Lincoln Laboratory ETS, New Mexico MPS 22042
2000 11 25.17784 00 38 11.63 -06 15 16.0 18.5   704 – Lincoln Laboratory ETS, New Mexico MPS 22042
2000 11 25.19539 00 38 11.43 -06 15 07.3 18.6   704 – Lincoln Laboratory ETS, New Mexico MPS 22042
2000 11 25.21220 00 38 11.23 -06 14 59.5 18.4   704 – Lincoln Laboratory ETS, New Mexico MPS 22042
2000 11 29.13744 00 37 41.06 -05 42 50.9 17.6   704 – Lincoln Laboratory ETS, New Mexico MPS 22042
2000 11 29.15364 00 37 40.92 -05 42 42.5 17.2   704 – Lincoln Laboratory ETS, New Mexico MPS 22042
2000 11 29.16926 00 37 40.86 -05 42 34.4 17.9   704 – Lincoln Laboratory ETS, New Mexico MPS 22042
2000 11 29.18457 00 37 40.75 -05 42 26.7 17.2   704 – Lincoln Laboratory ETS, New Mexico MPS 22042
2000 11 29.20053 00 37 40.65 -05 42 19.0 17.1   704 – Lincoln Laboratory ETS, New Mexico MPS 22042
2000 11 29.20703 00 37 40.61 -05 42 16.0 17.1 R 699 – Lowell Observatory-LONEOS MPS 22042
2000 11 29.21959 00 37 40.54 -05 42 09.3   699 – Lowell Observatory-LONEOS MPS 22042
2000 11 29.25902 00 37 40.31 -05 41 49.5   699 – Lowell Observatory-LONEOS MPS 22042
2000 11 29.27155 00 37 40.26 -05 41 43.2   699 – Lowell Observatory-LONEOS MPS 22042
2000 12 21.10530 00 41 43.19 -02 15 28.4 17.1   704 – Lincoln Laboratory ETS, New Mexico MPS 23446
2000 12 21.12062 00 41 43.56 -02 15 17.8 17.7   704 – Lincoln Laboratory ETS, New Mexico MPS 23446
2000 12 21.13682 00 41 43.87 -02 15 08.2 17.7   704 – Lincoln Laboratory ETS, New Mexico MPS 23446
2000 12 22.11679 00 42 09.91 -02 05 01.3 17.7 R 699 – Lowell Observatory-LONEOS MPS 23446
2000 12 22.14026 00 42 10.49 -02 04 47.6   699 – Lowell Observatory-LONEOS MPS 23446
2000 12 22.16384 00 42 11.12 -02 04 31.9   699 – Lowell Observatory-LONEOS MPS 23446
2000 12 22.18732 00 42 11.76 -02 04 17.9   699 – Lowell Observatory-LONEOS MPS 23446
2000 12 23.07264 00 42 36.31 -01 55 06.2 18.1   704 – Lincoln Laboratory ETS, New Mexico MPS 23446
2000 12 23.08791 00 42 36.71 -01 54 57.0 18.0   704 – Lincoln Laboratory ETS, New Mexico MPS 23446
2000 12 23.10304 00 42 37.09 -01 54 47.7 18.1   704 – Lincoln Laboratory ETS, New Mexico MPS 23446
2000 12 23.11818 00 42 37.53 -01 54 38.0 17.8   704 – Lincoln Laboratory ETS, New Mexico MPS 23446
2000 12 23.13335 00 42 37.96 -01 54 28.7 18.1   704 – Lincoln Laboratory ETS, New Mexico MPS 23446
2001 01 20.07461 01 02 46.24 +03 14 26.8 18.4   704 – Lincoln Laboratory ETS, New Mexico MPS 24729
2001 01 20.08858 01 02 47.06 +03 14 36.2 18.5   704 – Lincoln Laboratory ETS, New Mexico MPS 24729
2001 01 20.08957 01 02 47.08 +03 14 36.3 18.6   704 – Lincoln Laboratory ETS, New Mexico MPS 24729
2001 01 20.10398 01 02 47.90 +03 14 45.8 19.0   704 – Lincoln Laboratory ETS, New Mexico MPS 24729
2001 01 20.10458 01 02 47.89 +03 14 46.8 18.6   704 – Lincoln Laboratory ETS, New Mexico MPS 24729
